Hourly Weather Roundup
Issued by NWS Central Illinois

Home | Current Version | Previous Version | Text Only | Print | Product List | Glossary On
Versions: 1 2 3 4 5 6 7 8 9 10 11 12 13 14 15 16 17 18 19 20 21 22 23 24 25 26 27 28 29 30 31 32 33 34 35 36 37 38 39 40 41 42 43 44 45 46 47 48 49 50
000
NZUS43 KILX 062010
HWRILX

AREA WEATHER ROUNDUP
NATIONAL WEATHER SERVICE, LINCOLN IL
200 PM CST SAT FEB 06 2016


CITY           SKY/WX    TMP DP  RH WIND       PRES   REMARKS
BLOOMINGTON    SUNNY     46  30  54 SW15      30.19F
CHAMPAIGN      SUNNY     46  30  53 SW13      30.21F
DANVILLE       SUNNY     43  29  57 SW12      30.20F
DECATUR        SUNNY     48  28  46 S14       30.21F
EFFINGHAM      SUNNY     51  29  42 S9        30.25F
FLORA          SUNNY     53  29  38 S8        30.25F
GALESBURG      SUNNY     46  30  54 SW12G17   30.17F
JACKSONVILLE   SUNNY     51  32  49 SW8       30.19F
LACON          SUNNY     44  25  46 SW10      30.17F
LAWRENCEVILLE  SUNNY     49  27  42 SW6       30.26F
LITCHFIELD     SUNNY     48  33  55 S12       30.21F
$$


CITY           SKY/WX    TMP DP  RH WIND       PRES   REMARKS
LINCOLN        SUNNY     47  32  55 S5        30.20F
MACOMB         SUNNY     47  29  50 SW12      30.21F
MATTOON        SUNNY     47  28  47 S8        30.22F
MT CARMEL AP   SUNNY     50  28  43 CALM      30.25F
OLNEY-NOBLE AP SUNNY     50  30  46 SW6       30.25F
PARIS          SUNNY     46  31  56 SW10      30.24F
PEORIA         SUNNY     46  26  45 SW16G22   30.19F
PONTIAC        SUNNY     44  32  61 SW10G16   30.20F
RANTOUL        SUNNY     46  33  61 S9        30.21F
ROBINSON       SUNNY     48  28  45 S7        30.27F
SPRINGFIELD    SUNNY     50  30  46 S12       30.20F
TAYLORVILLE    SUNNY     46  32  57 S10       30.21F
$$

...REGIONAL REPORTS...


CITY           SKY/WX    TMP DP  RH WIND       PRES   REMARKS
CHICAGO O`HARE MOSUNNY   39  28  64 W13       30.16F WCI  31
KANKAKEE       SUNNY     41  30  63 SW10      30.20F
MOLINE         SUNNY     43  27  53 SW9       30.15F
MOUNT STERLING SUNNY     49  26  40 W8        30.18F
MOUNT VERNON   SUNNY     54  27  35 SW8       30.26F
PITTSFIELD     SUNNY     50  29  44 SW13      30.20F
QUINCY         SUNNY     48  26  42 SW10      30.19F
ROCKFORD       MOSUNNY   40  26  57 SW9       30.17F WCI  34
$$


CITY           SKY/WX    TMP DP  RH WIND       PRES   REMARKS
BURLINGTON     SUNNY     45  29  53 SW9       30.17F
CEDAR RAPIDS   PTSUNNY   39  33  79 SW13      30.14F WCI  31
DES MOINES     MOSUNNY   35  28  75 SW10      30.16F WCI  27
KIRKSVILLE     SUNNY     47  27  45 SW12      30.19F
OTTUMWA        SUNNY     43  32  65 W14       30.16F
ST LOUIS       MOSUNNY   57  29  34 W12       30.22F
$$


CITY           SKY/WX    TMP DP  RH WIND       PRES   REMARKS
TERRE HAUTE    SUNNY     46  27  47 SW9       30.24F
EVANSVILLE     SUNNY     54  25  32 SW6       30.27F
INDIANAPOLIS   MOSUNNY   44  23  43 SW10      30.23F
LAFAYETTE      SUNNY     41  25  53 SW8       30.23F
MADISON        PTSUNNY   31  25  78 VRB6      30.12F WCI  25
MILWAUKEE      CLOUDY    33  25  72 SW14      30.14F WCI  23
$$





USA.gov is the U.S. government's official web portal to all federal, state and local government web resources and services.